Wind_Speed
11 11 12 16 18 19 19 20 21 24 27 29 29 29 30 31 31 33 33 34 34 33 30 30 31 31 31 30 32 36 39 40 39 38 39 40 42 42 41 40 40 38 38 38 38 38 37 37 35 34 32 31 29 27 26 25 25 24 24 24 24 24 24 25 26 25 22 20 21 23 24 23 23 23 23 23 24 24 25 25 24 22 21 20 20
13 15 14 14 16 18 19 20 21 23 25 28 29 30 31 33 34 34 35 35 35 34 31 30 30 30 31 32 34 37 41 43 42 42 42 41 42 43 43 42 41 40 40 39 38 39 40 40 39 37 36 35 33 30 29 28 28 27 27 27 26 26 25 25 26 27 26 24 23 24 25 26 26 25 24 25 26 27 28 28 28 26 25 24 23
16 17 18 18 17 17 18 19 21 22 24 26 28 30 31 32 34 35 36 35 35 33 30 29 29 30 31 33 34 36 40 43 44 45 45 43 42 43 43 42 42 42 41 40 39 39 40 41 41 40 40 40 38 34 32 31 30 30 30 29 29 28 27 27 28 28 28 28 27 26 26 27 27 26 26 27 28 29 29 29 29 29 29 28 27
18 19 20 21 21 21 22 22 22 23 25 26 27 28 30 31 32 34 35 34 33 30 29 29 29 30 31 33 35 36 38 41 42 44 46 45 42 41 41 42 42 43 42 42 41 40 40 41 41 42 42 42 42 40 37 35 33 32 32 32 32 32 30 30 29 29 29 29 29 28 28 28 26 25 27 28 28 29 31 31 31 31 31 31 31
19 20 20 21 22 23 24 25 25 25 26 26 26 26 26 26 28 29 29 30 29 29 28 29 29 30 31 33 36 37 38 38 39 40 41 41 40 39 39 40 41 42 43 43 43 43 42 42 42 42 43 44 45 44 42 39 36 35 35 34 34 34 33 32 31 31 31 31 31 30 30 30 29 28 28 29 29 30 32 33 33 33 33 33 34
19 20 20 20 21 22 23 24 25 26 27 27 27 26 25 25 25 25 26 27 27 28 29 29 30 30 30 32 34 37 37 37 38 38 38 38 37 37 37 39 41 42 43 44 44 44 44 44 44 43 44 45 46 46 45 43 41 39 37 36 36 36 35 34 33 33 34 34 33 32 31 31 31 31 30 31 31 31 33 35 35 34 34 34 35
21 21 22 22 22 23 23 24 24 26 27 28 29 29 28 27 26 26 26 27 27 28 28 28 29 30 31 32 33 35 37 39 38 37 38 37 37 36 37 39 41 42 43 44 45 45 45 45 44 43 43 44 44 45 46 45 44 42 39 37 36 37 37 36 35 35 35 36 35 35 33 32 33 33 32 32 33 34 35 36 37 36 34 35 35
23 24 24 25 25 25 25 25 25 26 27 28 29 31 31 31 31 30 29 29 29 28 28 28 28 29 30 31 32 33 36 37 36 35 37 37 37 37 38 40 41 42 43 44 45 45 46 46 46 45 43 43 43 43 44 44 43 41 39 38 37 38 39 38 37 37 37 38 37 36 35 34 34 34 34 34 35 36 35 36 38 38 37 37 37
23 25 26 27 27 27 27 27 27 28 28 28 28 29 30 32 32 33 33 33 32 31 30 30 29 29 30 30 31 32 33 34 34 34 36 37 37 38 40 41 42 43 44 45 45 45 45 46 47 47 46 45 44 43 43 42 42 41 41 40 39 38 39 40 39 39 40 40 39 37 36 35 34 35 35 35 36 36 35 36 38 39 38 39 39
21 22 25 27 28 29 30 30 30 30 30 30 30 29 30 30 31 32 33 34 35 36 35 34 33 32 31 31 32 32 32 33 33 33 34 36 37 38 40 41 43 44 46 47 47 47 46 46 47 47 48 47 46 45 44 43 42 42 41 42 42 40 40 41 41 41 42 42 40 39 38 37 36 35 36 36 36 37 36 36 37 38 38 39 40
19 20 22 24 26 27 29 30 31 31 31 31 32 32 32 32 32 32 33 33 34 36 37 37 37 36 35 34 34 34 33 33 33 32 31 32 34 35 38 40 42 43 45 46 47 48 49 49 49 49 49 49 48 48 47 45 44 43 43 43 44 43 42 43 43 43 43 43 43 42 42 41 40 38 38 38 38 39 39 38 38 37 37 37 38
17 19 20 22 23 24 26 28 30 31 31 32 33 34 34 34 34 34 35 35 35 35 35 37 38 38 38 38 38 38 37 37 36 35 34 34 34 34 35 37 39 41 43 44 45 46 48 50 50 51 51 51 51 50 49 48 47 46 46 46 46 46 46 47 46 45 45 45 45 45 45 44 43 42 41 40 40 41 41 42 41 39 38 37 36
14 15 17 19 21 23 24 26 27 29 30 31 32 34 35 36 37 37 37 38 38 37 37 37 37 37 38 38 39 39 39 39 38 37 37 37 37 37 37 37 37 38 39 41 42 43 45 47 48 49 50 50 52 52 52 52 51 50 50 49 49 49 49 49 49 48 48 48 48 48 47 46 46 44 43 42 42 43 44 43 43 42 41 39 36
10 11 12 14 16 18 21 23 26 28 29 30 31 33 34 35 36 38 39 40 40 41 41 40 39 39 38 38 38 38 38 38 37 37 37 38 38 39 39 38 38 38 38 39 39 40 42 43 45 46 47 47 49 50 51 53 54 54 54 54 54 52 51 51 51 51 50 51 51 51 49 47 47 47 44 44 45 46 47 46 44 44 44 42 39
9 9 9 10 10 12 14 17 20 23 25 28 29 31 33 34 35 36 38 40 41 43 43 44 43 42 41 41 40 39 39 38 37 37 37 38 39 39 39 39 39 39 39 39 39 40 40 41 42 43 44 45 46 46 47 48 51 53 55 57 58 57 57 57 56 55 55 55 55 54 52 50 50 50 49 49 50 49 51 52 50 47 47 46 45
10 10 11 11 11 11 12 13 14 16 18 20 22 25 28 30 31 33 35 37 39 41 43 45 46 46 45 44 43 42 41 40 40 39 39 40 40 40 40 40 40 40 40 40 40 40 41 41 41 42 42 43 44 44 44 45 46 49 52 54 56 58 59 60 60 59 59 60 60 59 57 55 55 54 54 54 54 54 56 58 56 52 50 49 49
12 13 13 14 14 14 14 15 15 15 16 17 18 20 22 24 26 28 30 31 33 36 38 41 44 46 47 47 46 45 44 43 42 42 42 43 43 43 43 43 43 43 43 42 42 43 43 43 43 43 43 43 42 42 42 44 46 48 49 51 53 55 57 57 59 60 60 61 61 61 60 59 59 59 59 59 59 59 62 63 60 56 53 53 52
14 15 15 16 16 16 17 17 17 17 17 18 18 19 20 22 23 25 26 27 28 30 32 34 37 41 43 45 46 46 45 44 44 44 44 45 45 45 45 45 46 46 46 46 46 46 46 46 45 45 46 45 44 44 44 45 47 49 50 51 53 54 55 55 56 58 60 61 62 62 62 63 62 62 62 62 63 63 65 68 66 61 58 59 58
14 14 14 15 16 16 16 16 16 17 17 17 17 17 19 20 22 23 25 26 27 28 29 30 31 34 37 40 42 43 42 42 43 44 45 46 47 47 47 47 47 48 48 48 49 49 49 49 49 49 48 48 48 47 47 48 50 51 52 53 55 55 54 53 53 55 57 58 60 61 61 61 61 61 60 60 61 63 65 68 70 67 66 66 64
10 11 11 12 12 13 14 14 15 15 15 15 15 15 16 17 19 20 22 23 25 26 27 28 29 29 31 34 36 38 38 38 39 41 42 45 46 47 47 47 47 48 48 49 50 50 51 51 51 52 52 52 52 52 52 52 54 55 56 57 58 57 54 54 54 55 56 57 59 60 60 60 59 59 59 59 59 61 63 65 68 68 69 69 68
8 8 9 10 11 11 12 13 14 15 15 15 15 14 14 15 16 17 18 19 21 22 24 25 26 27 28 29 31 33 34 34 34 36 38 40 42 43 44 44 45 45 46 47 48 49 50 51 52 53 53 54 55 55 56 56 57 58 60 61 62 60 59 58 58 58 58 59 60 60 60 61 61 60 60 60 59 59 61 62 64 65 67 69 69
7 7 8 9 10 11 12 13 13 14 14 14 14 14 14 15 15 16 16 15 16 17 19 20 21 23 24 25 26 28 29 30 30 31 33 35 36 37 38 38 39 41 43 44 45 46 48 49 51 51 51 52 54 55 57 58 59 61 62 63 63 63 63 64 63 63 63 63 62 62 61 62 63 62 62 61 59 58 58 59 61 62 64 67 69
7 8 8 9 10 11 12 12 13 14 14 15 15 15 15 16 16 16 16 15 14 14 15 16 17 18 18 19 21 23 25 25 26 27 29 30 31 32 33 34 36 38 41 43 44 45 46 47 47 48 48 49 51 52 54 55 58 60 61 62 63 63 64 66 67 67 67 67 67 66 65 64 64 64 64 62 60 59 58 57 57 56 58 61 64
8 9 9 9 10 10 11 12 13 14 15 16 17 17 18 17 17 17 17 17 16 15 14 14 14 14 14 14 15 17 20 22 24 25 27 27 28 30 32 34 36 38 40 42 43 44 44 45 45 46 46 47 48 50 51 52 54 56 58 59 60 61 63 65 67 68 69 70 70 70 69 68 67 67 66 64 62 61 59 58 58 56 55 56 58
7 8 8 9 9 10 11 12 13 14 15 16 17 18 19 19 19 19 19 19 18 18 16 15 14 13 13 12 13 14 17 20 22 25 26 27 29 31 33 36 38 39 41 42 42 43 44 45 46 47 48 48 49 50 51 51 52 53 54 56 57 60 62 64 65 66 68 69 70 71 71 71 71 70 69 68 66 64 62 61 60 57 55 56 55
7 7 7 8 8 10 11 12 13 14 15 16 17 18 19 19 20 20 20 20 19 19 18 17 16 15 14 14 14 15 17 19 22 24 26 28 30 32 34 36 38 39 41 42 43 44 45 47 48 50 51 51 50 50 50 49 49 49 50 51 53 56 59 61 62 64 65 66 67 68 69 70 70 71 71 71 70 68 65 64 63 61 58 58 58
7 7 7 7 8 9 10 11 12 14 15 16 17 17 18 19 19 20 20 20 19 19 18 17 17 16 16 16 17 18 19 22 24 26 28 30 32 33 35 36 37 38 40 42 43 45 46 48 50 51 51 50 48 47 47 46 45 45 44 44 46 49 51 54 56 58 60 61 63 64 65 66 67 69 70 71 72 71 69 67 66 64 62 61 60
8 8 8 9 9 10 10 11 12 14 15 16 16 17 17 18 19 19 19 19 19 19 18 17 16 16 15 16 18 20 23 25 27 29 31 33 34 35 36 37 38 39 40 42 43 45 46 48 49 49 48 47 45 44 44 43 42 40 38 37 38 40 42 45 47 49 51 54 56 58 60 61 63 64 66 68 70 71 70 70 69 68 65 64 64
10 10 10 11 11 11 12 13 13 14 15 16 17 17 18 18 18 19 19 20 20 20 19 18 17 16 15 15 15 17 21 25 28 31 33 35 36 37 38 39 39 40 41 42 44 45 45 46 47 47 46 45 44 42 41 40 38 36 33 32 34 35 37 39 42 44 46 47 50 52 54 56 58 60 61 63 65 67 68 68 69 68 68 68 68
11 11 12 12 12 12 13 13 14 14 15 16 17 18 18 18 18 19 19 20 20 20 20 20 19 18 17 16 16 16 16 18 22 27 30 34 36 37 38 39 40 41 42 42 43 44 45 45 45 44 43 42 42 40 38 37 34 32 31 31 32 34 36 37 39 41 43 45 46 48 50 52 54 56 57 59 61 63 64 65 65 64 65 68 70
12 12 12 12 12 13 13 14 14 15 15 16 16 17 18 18 18 18 18 19 19 20 20 20 20 20 19 18 18 18 18 18 18 20 23 27 31 34 36 38 39 40 41 42 43 43 44 44 44 42 41 41 40 37 35 33 31 29 30 31 32 34 35 37 38 39 41 42 43 45 46 48 49 51 53 55 57 59 61 64 63 59 58 60 64
12 12 13 13 13 13 13 14 14 15 15 16 16 17 18 18 19 19 19 19 19 19 20 20 21 21 21 20 20 19 19 19 19 20 20 22 24 28 31 34 37 39 40 42 42 42 42 42 41 40 39 38 36 33 31 30 29 28 29 31 32 34 35 37 38 39 41 42 43 45 46 46 47 48 49 50 52 54 56 59 62 61 59 57 59
12 12 12 12 13 13 13 14 14 14 15 16 17 17 18 18 19 19 19 19 19 20 20 20 20 20 21 21 21 20 20 20 20 20 21 21 22 23 26 28 31 35 37 39 40 40 39 38 38 37 36 34 32 30 28 27 28 29 30 32 34 35 36 37 39 40 41 41 42 43 44 45 46 48 48 48 49 51 53 55 58 60 62 62 63
12 12 13 13 13 13 13 13 13 14 15 16 16 17 18 18 19 19 19 19 19 20 20 20 21 21 21 22 21 22 21 21 21 21 22 22 22 23 24 25 26 29 30 33 35 35 35 34 34 33 31 29 28 26 25 25 26 27 28 30 33 36 38 39 40 40 40 39 40 42 41 40 41 43 43 42 43 46 50 53 54 56 59 61 63
13 13 13 13 13 13 13 13 13 13 14 15 16 17 18 18 19 20 20 20 20 20 20 21 21 22 22 23 23 23 23 22 22 22 22 23 23 23 24 24 24 25 26 27 28 31 31 31 30 28 27 25 24 23 22 22 22 23 24 26 29 32 35 37 39 40 40 40 42 43 43 41 39 39 38 37 39 42 44 45 47 50 52 51 51
13 13 13 13 14 14 14 13 13 14 15 16 16 17 17 18 19 20 20 21 21 22 22 22 22 23 23 23 23 24 24 24 24 23 23 23 24 24 24 24 24 24 24 24 25 26 27 28 27 25 24 23 22 23 23 23 24 25 26 27 28 29 31 33 36 39 40 40 40 41 41 40 37 36 36 38 41 42 42 41 43 44 44 43 43
12 12 12 13 13 13 13 13 14 14 15 15 16 16 17 17 18 19 20 21 22 22 23 23 23 23 24 24 24 24 24 25 25 24 24 24 24 24 24 25 25 25 25 25 25 25 25 25 26 26 25 24 24 24 25 25 26 26 27 28 29 30 29 29 30 34 37 39 38 37 38 37 34 33 35 38 41 42 44 46 48 49 49 48 47
10 10 11 11 11 11 11 11 12 13 13 14 14 15 16 17 17 18 19 20 20 21 22 23 23 23 24 24 25 25 25 26 26 26 25 25 24 24 24 24 25 25 26 26 26 26 26 26 25 25 26 26 26 26 25 26 26 27 26 27 27 28 28 27 26 27 31 35 36 36 36 37 37 37 38 40 42 43 44 45 47 49 50 52 53
9 9 9 9 9 8 9 9 10 10 11 12 13 14 15 16 17 18 19 19 20 21 21 22 23 23 24 24 24 25 26 27 27 27 27 27 26 26 25 25 25 25 26 26 26 26 27 27 27 27 26 26 26 27 27 27 27 27 26 25 24 25 25 25 24 23 24 28 33 35 36 37 37 38 39 40 41 42 43 42 44 45 46 48 51
7 7 8 8 8 8 8 9 10 11 12 13 14 15 16 17 18 19 19 20 20 21 21 22 22 23 24 24 24 25 25 26 27 28 29 29 28 28 27 26 26 26 26 27 27 26 26 26 26 27 27 27 27 26 26 26 25 25 24 23 22 22 23 23 23 23 22 23 27 32 36 38 38 38 38 38 38 38 39 39 41 43 43 44 46
6 7 7 7 8 9 10 11 13 14 15 16 17 18 18 19 20 20 21 21 22 22 23 23 24 24 24 25 25 25 25 26 27 28 29 29 29 29 29 28 28 27 27 28 28 28 27 27 26 26 26 26 27 27 27 26 24 23 23 24 23 22 21 21 22 22 22 22 23 25 30 35 38 38 38 37 36 37 38 39 40 42 43 44 44
6 7 8 9 10 11 13 14 16 17 18 20 21 21 22 22 22 23 23 23 24 24 25 25 26 26 26 26 27 27 27 27 27 27 28 29 30 30 30 29 29 28 28 28 29 29 28 28 27 26 25 25 25 26 26 26 25 23 23 23 24 24 23 22 22 22 22 23 23 24 25 27 32 36 37 38 37 37 38 39 41 41 42 43 44
7 9 10 12 13 15 17 18 20 21 22 23 24 25 25 25 26 26 26 26 26 26 27 27 28 29 30 30 29 29 29 29 29 28 29 29 30 31 31 30 30 29 29 29 29 29 29 29 28 27 26 25 25 25 25 25 25 25 25 24 24 24 24 24 23 23 23 23 23 24 24 24 25 28 31 34 36 36 37 39 41 41 42 43 44
10 12 14 15 17 19 21 23 24 25 26 27 28 28 29 29 30 30 30 30 29 29 29 29 30 31 32 32 33 32 32 32 32 32 31 30 30 31 32 32 32 31 30 29 30 30 30 29 29 28 27 25 25 26 26 27 27 27 27 27 26 25 24 24 24 24 24 24 24 23 24 24 24 24 24 27 30 33 34 36 38 39 40 42 42
14 15 17 19 21 22 24 26 27 29 30 31 32 32 33 34 35 35 34 34 33 33 33 34 34 34 34 34 35 34 34 34 34 34 34 33 32 32 32 32 33 33 32 30 30 30 30 30 30 29 28 27 26 27 28 29 30 30 30 29 28 26 24 23 23 24 25 24 23 22 22 23 23 21 20 21 24 28 31 34 36 35 34 33 34
17 19 20 22 23 25 26 27 29 30 32 33 35 36 36 37 38 39 39 38 38 38 38 39 40 40 40 39 38 37 36 36 35 35 35 35 34 33 33 33 33 34 34 33 31 30 30 30 30 30 30 29 28 28 29 30 31 32 32 31 29 26 24 23 23 24 25 24 23 22 21 21 21 20 19 18 18 19 22 26 29 30 29 27 27
21 23 24 24 25 26 27 28 29 30 31 33 34 35 36 36 38 39 41 41 41 41 41 41 42 43 43 43 43 42 41 39 37 35 35 35 35 34 34 34 34 34 35 34 33 32 31 30 30 30 30 30 30 29 29 30 30 31 31 32 30 27 24 23 23 24 25 24 23 22 21 19 19 19 18 18 17 16 15 15 16 19 22 23 25
24 24 25 26 27 28 29 30 31 32 33 34 35 36 36 37 37 38 40 41 42 43 43 43 43 44 45 45 45 46 45 44 43 40 38 36 35 35 35 35 35 35 35 35 35 34 32 31 31 30 30 30 30 30 29 29 29 29 29 30 29 28 26 24 24 25 26 24 22 21 20 19 18 17 16 16 16 16 15 14 11 10 11 12 14
24 25 26 27 28 30 31 33 34 35 36 37 38 38 38 39 39 39 40 40 42 43 44 44 44 45 46 47 46 46 46 47 47 46 43 40 38 36 36 36 36 36 36 36 36 35 34 32 31 31 30 30 29 29 29 29 28 28 28 28 28 27 27 26 25 25 25 24 21 19 18 18 17 16 15 14 14 14 14 13 11 9 6 5 5
26 27 28 29 31 32 34 35 35 36 37 37 38 39 39 40 40 40 40 40 41 42 43 44 44 44 46 47 46 46 46 46 46 47 46 45 42 39 37 36 36 36 36 37 37 36 35 33 32 31 31 30 29 29 29 29 29 28 27 27 27 27 26 26 25 24 23 22 20 19 17 16 15 14 14 13 12 11 11 11 10 9 7 6 5
30 31 32 32 33 33 34 34 35 36 37 38 39 40 40 40 40 41 41 41 41 42 43 43 44 44 45 46 46 46 46 46 46 45 45 44 42 40 37 36 36 35 36 36 37 36 35 34 32 31 30 30 30 29 29 28 28 28 28 27 27 27 27 26 24 23 21 20 19 18 18 17 15 14 13 12 11 10 9 8 7 6 5 5 5
Wind_Direction
200 206 227 245 251 254 255 256 256 256 258 261 261 260 259 256 253 249 246 248 251 252 251 250 251 250 248 245 241 237 237 240 242 246 250 251 250 251 252 252 253 252 251 250 252 255 257 258 258 258 259 260 260 262 265 269 271 269 268 268 265 261 258 258 261 259 251 246 248 252 255 256 255 259 263 266 270 274 276 277 278 279 278 278 278
200 196 202 221 239 249 253 254 254 253 254 258 259 257 255 253 251 248 246 247 250 253 253 249 247 247 245 242 240 237 235 236 239 243 248 251 251 250 251 252 254 255 255 253 253 254 257 258 260 261 262 262 262 262 264 267 271 273 273 272 271 269 265 261 261 262 257 249 246 249 254 257 258 259 261 264 268 270 272 275 278 279 280 280 280
206 201 199 204 216 230 242 246 247 246 246 249 251 250 248 247 247 247 246 246 249 252 251 247 243 244 243 242 241 239 236 235 237 239 244 250 252 250 250 252 253 255 257 257 256 256 257 258 260 262 264 265 265 263 262 263 266 269 272 273 274 274 272 267 264 264 263 258 252 249 251 255 258 260 261 263 264 267 269 272 275 277 280 281 281
216 214 208 205 207 213 222 228 231 235 235 238 241 242 243 244 244 246 247 248 248 248 245 242 240 241 241 240 239 240 238 237 237 238 242 249 253 251 250 251 252 254 256 258 259 258 258 259 260 261 263 266 267 266 264 263 262 264 266 269 271 273 272 270 269 268 267 265 260 254 253 254 254 255 259 262 263 265 268 270 272 276 279 282 283
230 229 225 220 217 216 218 219 221 225 228 230 234 238 242 245 247 248 249 249 248 246 242 238 238 239 239 237 236 237 238 238 239 240 242 247 251 252 252 252 252 253 255 257 259 259 260 260 260 260 261 263 266 267 266 265 264 264 264 266 268 269 268 267 268 269 270 270 267 260 255 254 253 250 251 257 260 263 265 267 270 274 278 281 284
245 246 244 241 238 234 231 229 228 229 232 234 236 240 244 247 249 250 250 249 247 245 243 240 237 237 237 236 235 236 237 239 241 243 245 248 251 253 254 254 254 255 256 257 258 258 259 260 260 260 260 261 262 264 265 266 266 266 266 266 266 266 265 265 265 265 267 269 269 267 261 257 256 253 250 251 254 258 262 264 266 270 275 279 282
253 254 254 254 253 252 249 247 244 242 242 242 243 244 247 249 250 250 249 248 247 246 246 244 241 239 238 237 237 237 238 239 241 244 248 251 252 254 255 256 257 257 258 258 258 258 258 259 260 260 260 260 261 262 263 264 265 266 266 266 265 264 264 264 264 263 263 264 266 268 266 262 261 261 259 255 255 256 258 262 264 266 270 274 276
257 258 259 259 259 260 260 259 258 257 254 252 250 250 251 252 253 253 251 250 249 249 249 248 246 244 244 244 244 243 244 245 245 247 250 253 254 256 256 258 259 259 259 259 259 259 258 258 259 259 259 260 260 261 262 262 262 263 264 264 263 263 264 264 262 261 262 262 262 264 266 265 264 266 266 265 265 264 262 262 263 263 265 268 272
259 259 260 261 263 263 263 263 263 264 264 263 260 258 257 256 256 256 256 255 254 254 254 253 251 249 249 249 251 251 253 254 254 253 255 256 256 256 257 258 259 259 259 259 258 259 259 258 258 258 259 259 260 260 260 260 260 261 261 261 260 259 261 262 261 261 262 262 262 263 264 265 266 268 270 271 274 274 271 268 267 265 264 266 269
260 259 259 260 262 262 263 263 263 264 264 265 266 265 263 262 261 260 259 258 257 257 258 258 257 255 254 253 253 254 255 257 258 258 258 258 257 257 257 258 260 260 260 260 259 259 258 258 258 258 258 258 258 258 258 258 258 258 259 259 259 258 259 259 260 261 262 263 263 263 263 265 268 270 272 274 276 277 276 274 272 271 268 267 267
259 257 258 258 259 261 262 262 263 263 262 263 263 264 265 264 263 262 262 261 260 259 259 259 259 259 258 257 256 256 257 258 258 259 258 258 257 257 257 257 258 260 260 261 261 260 260 259 258 258 257 257 256 256 257 257 256 256 256 256 258 259 259 258 258 258 260 262 263 263 263 265 267 269 272 274 276 278 278 277 275 273 272 271 271
261 257 256 257 257 259 260 261 262 263 262 261 261 261 261 261 261 262 262 262 262 261 260 259 259 259 259 259 259 259 259 259 260 259 259 258 258 257 257 257 257 258 259 260 260 261 261 260 260 259 258 258 257 257 257 257 256 255 255 255 255 256 256 257 258 259 259 261 262 262 264 266 267 269 270 273 276 277 276 275 276 274 272 270 272
266 262 260 258 258 259 259 260 261 262 262 262 261 261 260 260 259 259 260 260 261 262 261 260 260 260 260 260 260 260 260 260 260 259 259 259 259 258 258 258 258 258 259 259 260 260 261 261 262 261 261 260 259 259 258 258 258 256 255 254 253 253 254 255 257 258 259 260 261 262 263 266 268 268 269 271 274 274 273 273 274 273 270 269 269
270 267 264 262 261 261 261 261 262 262 262 263 263 263 262 262 261 259 258 258 258 259 259 260 260 260 260 260 261 261 261 261 260 259 259 259 259 259 259 259 259 258 258 258 259 259 260 261 261 262 262 262 262 261 260 259 259 258 256 255 253 252 252 253 255 257 258 259 260 262 263 265 267 268 269 270 270 271 272 272 271 269 268 267 266
280 277 273 271 269 266 265 265 265 265 265 265 265 265 266 266 266 264 263 261 259 258 258 258 258 258 258 259 259 260 261 261 261 260 260 260 260 260 260 261 261 260 260 259 259 260 260 260 261 261 262 262 263 263 263 261 260 259 258 257 255 254 253 252 253 256 258 260 261 261 262 263 265 267 268 268 268 268 269 269 267 266 266 266 265
284 284 284 284 282 280 278 275 274 273 273 273 273 272 271 270 270 269 267 266 264 262 260 259 259 259 258 258 259 259 260 260 260 261 261 261 261 262 262 263 263 264 264 263 263 263 263 262 263 263 263 262 262 263 264 264 264 263 261 260 260 259 258 256 256 255 256 259 260 261 262 262 264 265 266 267 268 268 268 268 266 265 264 265 265
283 285 286 287 287 286 286 285 284 283 282 282 282 280 278 277 275 273 272 270 268 265 263 261 259 259 259 259 260 260 261 261 262 262 262 262 262 263 264 265 266 266 267 267 267 267 266 266 266 266 266 266 266 265 264 263 263 263 263 262 263 263 263 262 262 260 258 258 258 259 261 263 264 264 264 265 266 266 267 267 267 266 265 265 264
284 286 287 289 289 289 289 290 289 289 289 289 288 287 285 283 280 278 277 276 274 271 268 264 261 260 259 259 260 260 261 262 263 263 263 264 264 265 265 266 267 268 269 269 269 269 269 268 268 268 269 269 269 268 267 265 264 263 263 262 262 262 262 263 264 264 263 261 260 259 260 262 263 264 264 264 263 263 263 264 265 266 267 267 265
286 288 289 290 292 293 294 295 295 296 298 299 299 298 295 291 288 284 281 279 278 276 274 271 268 264 262 261 260 260 260 261 262 263 264 264 265 266 266 267 268 269 270 270 271 271 271 272 271 271 271 271 270 269 268 267 267 266 265 265 264 263 263 263 263 264 264 263 263 262 262 262 263 262 261 261 260 260 260 261 262 264 266 267 266
295 297 299 300 302 304 305 306 306 308 310 312 312 310 307 302 299 294 290 285 281 279 277 275 274 272 269 266 263 262 261 260 260 261 262 262 264 265 266 267 268 269 271 272 273 274 275 275 275 275 275 274 273 272 271 269 269 268 267 266 266 266 266 265 263 262 262 261 261 262 263 263 262 262 261 260 259 259 259 260 261 262 262 264 265
310 312 314 315 317 318 318 318 319 320 321 323 323 324 322 319 315 309 301 294 288 284 282 280 278 276 274 271 267 264 262 261 261 261 261 261 262 264 265 267 269 271 272 273 275 276 277 278 278 278 278 278 277 276 275 273 271 270 269 268 268 267 266 265 263 262 261 261 260 260 261 262 262 261 261 261 262 262 261 261 262 262 261 261 263
322 323 325 326 328 329 328 328 328 328 329 331 334 338 338 336 333 327 319 308 298 293 292 291 289 284 280 274 268 262 260 260 260 261 262 262 263 264 266 269 272 273 275 276 277 278 278 279 279 279 279 279 277 276 275 274 272 271 270 269 269 268 267 266 264 263 262 261 261 261 261 261 262 262 263 263 265 266 265 265 264 263 261 260 260
331 330 333 335 336 335 334 335 336 335 338 341 345 348 348 347 345 342 338 330 318 309 305 305 304 300 293 283 271 261 257 258 260 261 262 263 263 265 268 270 273 275 276 277 278 279 279 280 280 280 280 279 278 276 274 272 271 270 269 268 268 267 267 266 265 264 263 263 262 262 262 262 263 264 265 266 267 268 269 269 268 266 263 260 259
331 332 336 340 339 338 339 341 342 342 345 348 350 350 351 351 351 349 348 345 338 329 322 318 316 314 309 297 280 266 259 258 260 262 262 262 264 267 270 273 275 277 278 279 280 282 283 284 284 284 284 283 282 280 277 273 271 269 268 267 266 265 264 264 264 264 264 263 263 263 262 262 262 263 264 265 266 267 267 268 268 268 265 262 259
327 329 335 339 340 340 342 343 344 346 348 351 351 350 351 352 352 351 351 350 347 342 334 326 320 316 313 307 294 279 269 265 264 264 265 266 269 272 275 277 279 280 280 281 283 285 287 289 290 291 291 291 290 287 283 279 276 272 269 267 265 264 263 263 263 263 263 263 263 263 262 262 262 262 262 262 262 262 262 262 264 265 263 262 260
321 324 329 336 340 340 341 342 344 345 347 349 350 349 350 351 352 352 350 349 348 346 342 333 323 312 304 300 294 285 278 273 271 271 271 272 274 277 279 280 281 282 282 283 284 287 289 291 293 294 294 294 294 291 287 283 280 277 273 268 265 264 264 263 262 261 261 262 262 263 263 262 262 262 261 261 260 260 259 259 260 261 261 261 261
317 318 324 332 337 338 338 339 341 342 343 346 347 347 348 350 351 351 350 348 347 346 344 340 331 317 304 294 286 281 278 275 274 273 273 274 276 278 280 282 282 283 283 284 286 288 290 292 293 294 295 296 295 293 290 287 284 280 274 269 266 266 265 264 263 262 261 261 261 261 262 262 262 261 261 260 260 260 259 258 258 259 259 260 261
315 316 320 326 331 334 335 336 338 339 338 340 341 342 344 345 347 348 347 347 347 346 345 343 338 329 316 301 288 280 276 275 275 275 275 275 276 278 280 281 282 282 283 284 286 288 290 292 294 296 298 299 297 295 292 290 288 281 273 269 268 268 267 267 266 264 264 263 263 262 262 262 262 262 262 261 261 260 260 259 258 258 257 257 259
316 316 318 321 324 328 330 332 334 335 335 335 336 337 339 340 342 343 343 344 345 345 345 344 342 339 333 323 307 292 281 276 275 275 276 276 277 277 278 279 280 281 282 283 285 287 290 293 296 300 302 301 299 294 292 291 289 281 273 271 270 270 269 269 268 268 267 267 266 265 264 263 262 262 261 261 260 260 260 259 259 258 257 256 256
314 315 316 317 319 322 324 326 328 330 331 332 332 333 334 335 336 337 338 339 341 341 342 342 343 342 341 337 331 322 309 296 286 281 278 277 277 278 278 279 280 281 281 283 285 287 291 295 299 302 304 304 300 295 290 289 286 278 272 271 271 271 271 270 270 270 270 269 268 267 266 265 264 262 261 260 259 259 259 259 258 258 257 256 256
311 312 313 314 315 317 318 320 322 323 326 327 328 328 329 329 330 332 333 334 335 336 337 338 339 341 342 340 337 333 328 323 315 305 295 288 284 282 282 282 282 282 282 283 285 288 292 296 300 305 307 306 302 295 289 286 283 278 274 273 273 274 274 273 271 271 270 270 269 269 268 267 267 266 265 263 261 259 259 259 258 257 255 255 256
309 309 310 311 313 313 314 315 316 319 321 323 324 325 325 326 327 328 329 330 330 332 333 334 335 336 337 337 336 334 331 328 326 322 317 309 301 294 289 286 284 283 283 284 286 289 293 297 301 307 309 307 302 296 290 285 282 281 279 277 276 275 274 273 273 272 271 271 271 270 270 269 268 268 267 266 265 264 261 260 258 257 256 255 254
305 306 308 310 311 312 313 313 314 316 319 321 322 323 323 324 324 325 326 327 328 329 330 330 330 330 331 331 331 332 332 330 327 324 321 318 314 309 303 297 291 288 287 287 288 290 293 297 301 307 311 309 304 299 295 290 286 285 284 282 281 279 276 275 274 273 273 272 271 271 271 270 270 269 268 268 268 266 265 263 261 259 258 256 255
303 304 306 309 309 310 312 312 314 317 318 320 321 321 321 321 321 322 323 324 325 325 325 325 325 326 326 326 327 328 329 329 328 326 324 321 318 315 313 310 306 302 298 295 292 292 293 296 299 304 310 312 307 301 297 294 291 289 288 286 285 283 280 277 275 274 273 272 271 271 270 269 269 270 269 268 267 265 265 264 263 262 261 259 258
300 303 305 307 308 309 311 312 316 318 319 320 320 320 320 321 321 321 321 322 322 323 323 324 324 325 324 324 324 324 324 324 324 324 324 323 321 319 317 315 315 315 314 310 302 295 292 293 297 302 307 310 310 308 305 303 300 298 297 295 292 289 284 279 275 272 270 269 269 270 269 267 266 267 266 265 265 265 266 266 264 262 262 261 260
300 302 304 306 307 309 312 316 320 322 323 323 323 322 322 322 322 322 323 323 323 324 324 324 324 324 323 323 322 321 320 320 320 320 321 322 322 321 320 319 318 318 320 321 316 307 298 293 294 297 301 303 305 306 306 305 304 305 306 306 305 302 295 285 275 268 265 264 265 268 269 267 265 265 265 263 262 262 263 263 262 262 261 258 256
302 302 303 303 306 310 316 321 325 326 327 327 327 327 327 327 327 327 326 325 325 325 324 324 323 323 323 322 321 320 319 318 318 317 317 317 318 318 320 322 322 322 322 322 323 321 315 306 298 293 292 293 296 299 300 300 301 303 306 309 311 313 310 301 286 271 263 260 261 264 267 267 263 260 260 261 260 260 259 259 260 261 261 259 256
305 304 302 303 308 314 320 325 328 330 331 332 332 333 334 333 333 332 330 329 328 327 325 325 324 323 323 322 322 321 320 319 318 318 317 316 315 315 316 319 321 323 324 324 324 324 323 320 314 305 296 291 290 293 296 297 298 300 302 306 312 317 321 319 309 292 275 266 262 263 266 269 267 264 261 260 260 261 261 262 261 261 260 260 258
311 310 309 310 316 322 326 330 333 334 335 337 337 337 337 336 335 334 333 332 331 329 328 327 326 325 325 324 323 322 321 321 320 319 319 318 317 316 316 316 318 321 323 324 325 325 323 322 320 316 310 303 298 294 292 292 295 297 298 301 308 316 323 327 327 319 302 283 273 268 268 270 271 270 267 265 264 264 266 266 266 265 263 261 259
322 323 320 320 324 329 332 335 336 336 336 337 337 337 336 335 334 334 333 332 332 331 330 329 328 328 327 326 325 325 324 323 322 321 320 320 319 318 317 316 316 317 319 320 322 324 324 324 322 320 317 314 311 307 301 296 294 295 297 300 305 312 320 327 331 331 325 308 289 277 271 270 271 271 270 270 270 270 270 269 269 268 267 265 262
325 324 322 323 326 329 330 331 331 331 331 331 331 331 330 330 329 329 329 329 329 329 329 329 329 328 328 327 327 326 327 327 326 324 322 321 319 319 318 316 315 315 316 317 319 321 323 325 326 326 323 319 316 316 315 312 308 304 302 302 304 308 316 323 326 329 331 327 316 299 283 275 271 270 271 271 272 272 272 270 269 268 266 265 264
314 315 316 319 321 322 322 323 324 324 325 325 324 324 324 323 324 324 323 324 324 324 325 326 326 326 326 327 327 326 326 326 326 326 326 324 322 320 318 316 315 314 313 314 315 317 319 322 324 326 328 326 323 322 323 325 325 323 318 312 309 309 312 317 321 324 326 328 327 323 312 296 283 276 273 272 272 272 272 271 269 268 267 266 264
303 307 310 312 313 314 315 317 318 319 320 320 319 319 319 319 319 318 318 317 318 319 320 321 321 322 323 323 323 323 323 324 324 325 326 326 325 323 321 318 315 314 313 312 312 314 316 318 319 320 324 326 326 326 326 328 331 333 333 329 323 318 315 315 317 319 321 322 323 326 326 320 310 298 287 280 276 275 275 273 271 269 267 266 265
297 300 302 305 307 310 313 316 317 318 319 319 318 318 317 316 315 314 313 312 311 311 313 314 315 316 317 318 318 319 320 321 322 322 322 322 322 323 322 321 318 315 313 311 310 311 312 313 314 314 315 318 319 319 320 321 324 328 331 333 331 327 324 322 322 321 320 319 320 323 326 327 325 320 310 297 286 279 277 275 272 269 267 266 265
296 299 302 307 311 314 317 318 318 318 318 318 317 317 316 315 314 313 313 312 311 310 310 311 311 312 312 313 314 314 315 316 317 318 318 319 319 319 320 321 320 317 315 312 310 309 309 310 310 310 310 309 309 309 311 313 315 317 321 325 326 327 328 331 334 333 328 324 322 324 326 327 328 327 323 314 301 288 279 275 270 265 264 265 263
298 302 307 311 314 315 316 316 315 315 315 315 315 315 315 314 313 313 313 313 313 313 313 313 314 313 313 313 312 312 312 311 312 314 315 316 316 317 317 318 318 318 316 314 311 309 307 307 307 308 308 306 305 304 304 306 308 310 314 316 319 321 325 331 336 338 336 333 331 329 326 325 327 328 326 325 319 305 290 279 269 263 261 261 259
304 307 309 310 310 309 309 309 308 308 307 307 307 307 307 307 307 307 308 309 310 310 310 311 311 311 312 312 312 312 311 310 310 311 312 312 313 314 314 315 316 316 316 315 313 310 308 306 305 305 305 305 304 303 302 303 304 306 308 311 313 315 318 322 328 331 332 334 335 335 331 326 324 323 320 319 319 316 306 292 277 267 263 261 261
308 308 307 306 305 304 303 303 302 301 301 301 301 301 300 300 299 300 300 301 303 304 305 305 306 307 308 308 308 309 310 310 311 311 311 311 310 310 311 311 312 313 314 314 312 311 309 307 305 304 303 303 304 304 303 302 302 302 303 305 308 309 311 313 317 321 324 327 330 334 334 329 323 319 316 313 312 311 308 304 297 284 268 258 258
303 302 301 299 298 298 298 298 298 299 299 300 300 299 298 298 298 298 298 298 299 300 301 302 303 304 305 305 305 305 305 307 308 309 310 310 310 309 308 308 309 309 310 311 310 309 308 307 306 304 303 302 302 302 303 302 301 300 300 300 301 303 306 308 310 313 317 321 324 328 331 331 327 323 319 314 310 308 306 304 304 302 289 267 251
296 295 294 294 294 294 295 296 297 299 300 300 300 299 299 298 297 297 298 298 298 298 299 300 301 302 302 302 302 302 302 303 304 305 306 307 308 308 307 306 306 306 307 308 308 307 306 306 306 305 304 302 301 301 302 302 302 301 299 298 297 298 300 302 305 307 311 315 318 320 323 327 330 330 327 321 315 310 305 301 299 297 294 291 288
291 291 292 292 293 294 296 297 299 301 302 302 302 301 301 299 298 298 298 298 298 299 300 300 301 301 301 300 301 301 302 303 304 305 304 304 305 306 305 305 304 305 305 307 307 305 303 303 305 305 304 303 302 301 300 301 301 301 300 298 296 296 296 297 300 303 306 309 312 314 317 320 325 331 334 333 330 324 316 309 303 299 295 292 290
Height
3128 3130 3131 3133 3134 3136 3138 3139 3141 3142 3143 3144 3145 3146 3146 3147 3148 3148 3149 3150 3150 3152 3153 3154 3154 3155 3155 3156 3157 3158 3160 3162 3164 3165 3166 3167 3168 3169 3171 3171 3172 3174 3175 3176 3177 3178 3178 3179 3180 3180 3180 3180 3180 3180 3180 3180 3180 3181 3180 3180 3179 3179 3179 3179 3179 3180 3182 3182 3181 3180 3180 3180 3179 3179 3180 3179 3179 3179 3179 3178 3178 3178 3178 3178 3178
3126 3127 3129 3130 3132 3133 3134 3136 3137 3139 3140 3140 3141 3142 3142 3143 3144 3144 3145 3146 3146 3147 3149 3150 3150 3151 3152 3152 3153 3154 3156 3158 3160 3162 3162 3163 3164 3165 3167 3167 3168 3169 3170 3172 3173 3174 3174 3175 3176 3177 3177 3177 3177 3177 3177 3177 3178 3178 3178 3178 3178 3177 3177 3177 3177 3177 3178 3179 3179 3178 3178 3177 3177 3177 3177 3177 3177 3177 3176 3176 3176 3176 3176 3176 3176
3124 3125 3127 3128 3129 3131 3132 3133 3134 3135 3136 3137 3137 3138 3138 3139 3140 3140 3141 3142 3142 3143 3145 3146 3146 3147 3148 3149 3150 3151 3152 3154 3155 3157 3159 3159 3160 3161 3163 3164 3164 3165 3166 3167 3169 3170 3170 3170 3171 3173 3173 3173 3173 3174 3174 3174 3175 3175 3175 3175 3175 3175 3175 3174 3174 3174 3175 3176 3177 3177 3176 3175 3175 3175 3175 3175 3174 3174 3174 3174 3174 3174 3174 3173 3173
3121 3123 3124 3125 3126 3128 3129 3130 3131 3132 3132 3133 3134 3134 3135 3135 3136 3136 3137 3138 3138 3139 3140 3142 3143 3143 3144 3146 3147 3148 3149 3149 3150 3152 3154 3155 3156 3157 3158 3159 3160 3161 3162 3163 3164 3165 3166 3166 3167 3168 3169 3168 3168 3170 3171 3171 3171 3171 3172 3172 3172 3172 3172 3172 3171 3172 3172 3173 3174 3174 3174 3174 3174 3174 3173 3173 3172 3171 3171 3171 3171 3171 3171 3171 3170
3118 3120 3121 3122 3123 3124 3125 3126 3127 3128 3129 3130 3130 3131 3132 3132 3132 3132 3133 3134 3135 3135 3136 3138 3139 3140 3141 3142 3143 3144 3145 3146 3146 3147 3149 3150 3151 3152 3153 3155 3156 3157 3158 3159 3160 3161 3161 3162 3163 3164 3164 3164 3164 3165 3166 3167 3167 3167 3168 3168 3168 3169 3169 3169 3168 3168 3168 3169 3170 3171 3171 3170 3171 3171 3170 3170 3169 3169 3168 3168 3168 3168 3168 3168 3167
3116 3117 3118 3119 3120 3121 3122 3123 3124 3125 3126 3127 3127 3128 3128 3129 3129 3129 3130 3130 3131 3132 3133 3134 3136 3137 3137 3138 3139 3140 3141 3142 3142 3143 3145 3146 3147 3148 3149 3150 3151 3153 3154 3155 3156 3157 3157 3157 3158 3159 3160 3160 3160 3161 3162 3163 3163 3163 3164 3165 3165 3165 3165 3166 3165 3165 3164 3165 3166 3167 3167 3167 3167 3167 3167 3167 3166 3166 3165 3164 3165 3165 3165 3165 3165
3114 3115 3116 3117 3118 3119 3120 3121 3122 3122 3123 3124 3124 3125 3125 3126 3126 3127 3127 3128 3128 3129 3130 3131 3132 3133 3134 3134 3135 3136 3137 3137 3137 3139 3140 3142 3143 3144 3145 3146 3147 3148 3149 3150 3151 3152 3153 3153 3154 3154 3155 3156 3156 3157 3158 3159 3159 3159 3159 3160 3161 3160 3161 3162 3162 3161 3161 3161 3162 3162 3163 3163 3163 3163 3164 3163 3163 3163 3162 3161 3161 3162 3162 3162 3161
3112 3112 3113 3114 3115 3116 3117 3118 3119 3119 3120 3121 3121 3121 3122 3122 3123 3124 3124 3125 3125 3126 3127 3128 3129 3129 3130 3131 3132 3132 3133 3133 3134 3135 3136 3138 3139 3140 3141 3142 3142 3143 3144 3145 3146 3147 3148 3148 3149 3150 3150 3151 3152 3153 3154 3155 3155 3154 3154 3155 3156 3156 3156 3157 3157 3157 3157 3157 3157 3158 3159 3159 3159 3159 3160 3160 3159 3160 3160 3158 3157 3158 3159 3157 3157
3110 3110 3111 3111 3112 3113 3114 3115 3116 3116 3117 3118 3118 3119 3119 3119 3120 3120 3121 3121 3122 3123 3124 3125 3125 3126 3127 3127 3128 3129 3129 3129 3130 3132 3133 3134 3135 3135 3136 3136 3137 3138 3139 3140 3141 3142 3143 3143 3144 3145 3146 3147 3147 3148 3149 3150 3150 3149 3149 3150 3150 3150 3151 3152 3152 3152 3152 3153 3153 3154 3154 3155 3155 3155 3155 3156 3156 3156 3156 3155 3154 3155 3155 3153 3153
3107 3108 3108 3109 3109 3110 3110 3111 3112 3113 3114 3114 3115 3115 3116 3116 3116 3116 3117 3117 3118 3119 3120 3121 3121 3122 3123 3123 3124 3125 3126 3126 3127 3128 3129 3129 3130 3130 3131 3132 3132 3133 3133 3134 3135 3136 3137 3138 3139 3140 3141 3142 3143 3143 3144 3145 3145 3145 3145 3144 3143 3143 3145 3146 3147 3147 3147 3147 3148 3149 3149 3150 3151 3152 3151 3152 3152 3152 3152 3151 3151 3151 3150 3149 3149
3105 3105 3105 3106 3106 3106 3107 3107 3108 3109 3110 3110 3111 3111 3111 3112 3112 3112 3113 3113 3114 3115 3116 3117 3117 3118 3119 3119 3120 3121 3121 3122 3123 3124 3125 3125 3125 3126 3126 3127 3127 3127 3128 3129 3129 3130 3131 3132 3133 3134 3135 3136 3137 3138 3139 3140 3140 3141 3141 3141 3140 3139 3139 3141 3142 3142 3142 3142 3142 3143 3143 3144 3146 3147 3148 3147 3147 3147 3147 3146 3146 3146 3146 3145 3145
3102 3102 3102 3103 3103 3103 3104 3104 3104 3105 3105 3106 3106 3107 3107 3107 3108 3108 3108 3109 3110 3110 3111 3112 3112 3113 3114 3115 3115 3116 3117 3118 3119 3120 3120 3120 3121 3121 3121 3122 3122 3122 3123 3123 3124 3124 3125 3126 3127 3128 3129 3130 3132 3133 3134 3134 3135 3136 3136 3136 3136 3136 3136 3136 3137 3137 3137 3137 3137 3137 3138 3139 3141 3143 3143 3143 3143 3142 3141 3141 3141 3141 3140 3141 3141
3100 3100 3100 3100 3100 3100 3100 3100 3100 3101 3101 3102 3102 3102 3103 3103 3103 3104 3104 3104 3105 3105 3106 3107 3108 3108 3109 3110 3111 3112 3112 3113 3115 3116 3116 3115 3115 3115 3116 3116 3117 3117 3118 3118 3118 3119 3119 3120 3120 3121 3122 3124 3125 3127 3128 3129 3130 3130 3131 3131 3131 3131 3131 3131 3132 3132 3133 3132 3131 3131 3133 3134 3135 3136 3138 3139 3138 3137 3135 3135 3136 3135 3134 3135 3137
3098 3098 3097 3097 3097 3097 3097 3097 3097 3097 3097 3098 3098 3098 3098 3099 3099 3099 3099 3100 3100 3100 3101 3101 3102 3103 3104 3105 3105 3106 3107 3108 3110 3110 3110 3110 3110 3110 3110 3111 3111 3112 3112 3113 3113 3113 3114 3115 3115 3115 3117 3117 3118 3120 3121 3123 3123 3124 3124 3124 3124 3125 3126 3126 3126 3127 3127 3127 3126 3126 3128 3130 3129 3130 3133 3133 3132 3130 3129 3128 3129 3128 3128 3129 3131
3096 3096 3096 3095 3095 3095 3094 3094 3094 3094 3094 3094 3094 3094 3094 3094 3094 3094 3094 3094 3095 3095 3095 3096 3096 3097 3098 3099 3100 3101 3102 3103 3104 3105 3105 3105 3104 3104 3105 3105 3105 3106 3106 3107 3108 3108 3109 3109 3109 3110 3111 3112 3113 3114 3115 3116 3116 3116 3117 3117 3117 3118 3118 3119 3120 3121 3122 3121 3121 3121 3123 3124 3124 3125 3126 3126 3124 3123 3121 3120 3120 3121 3121 3122 3123
3094 3094 3094 3094 3093 3093 3092 3092 3092 3091 3091 3091 3090 3090 3090 3089 3089 3089 3089 3089 3089 3090 3090 3090 3091 3091 3093 3093 3094 3095 3097 3098 3098 3099 3099 3099 3099 3099 3099 3099 3099 3100 3100 3101 3102 3102 3103 3103 3104 3104 3105 3106 3108 3109 3110 3110 3110 3109 3109 3109 3110 3110 3110 3111 3112 3114 3116 3115 3115 3115 3116 3118 3119 3119 3120 3119 3117 3115 3112 3110 3111 3111 3112 3114 3115
3092 3092 3092 3091 3091 3091 3090 3090 3089 3089 3089 3088 3088 3087 3086 3086 3085 3084 3084 3084 3084 3084 3084 3085 3085 3086 3087 3088 3088 3090 3091 3092 3092 3093 3093 3093 3092 3093 3093 3093 3093 3093 3094 3095 3096 3096 3097 3097 3098 3099 3099 3100 3102 3104 3105 3104 3103 3102 3102 3102 3102 3101 3102 3103 3104 3105 3107 3108 3108 3108 3109 3110 3112 3112 3113 3113 3112 3110 3105 3101 3102 3104 3105 3106 3107
3090 3090 3089 3089 3088 3088 3087 3087 3086 3086 3085 3085 3085 3084 3083 3082 3081 3080 3080 3079 3079 3079 3079 3079 3079 3080 3081 3082 3082 3084 3086 3086 3086 3086 3087 3086 3086 3087 3087 3087 3087 3087 3088 3088 3089 3089 3090 3091 3092 3092 3093 3094 3096 3097 3098 3097 3096 3095 3094 3094 3093 3093 3094 3097 3097 3097 3098 3099 3099 3100 3101 3101 3102 3103 3104 3104 3105 3104 3100 3096 3096 3097 3097 3097 3098
3088 3088 3087 3086 3086 3085 3084 3084 3083 3083 3082 3082 3081 3081 3079 3078 3077 3076 3076 3075 3075 3074 3074 3074 3074 3075 3075 3076 3077 3078 3079 3080 3080 3080 3080 3080 3080 3081 3081 3081 3081 3081 3081 3081 3081 3082 3082 3083 3085 3085 3086 3087 3088 3089 3090 3090 3088 3087 3087 3086 3084 3084 3087 3089 3090 3089 3090 3090 3089 3090 3091 3092 3093 3093 3095 3096 3096 3095 3093 3091 3091 3091 3089 3088 3090
3086 3086 3085 3084 3084 3083 3082 3081 3081 3080 3080 3079 3078 3078 3076 3075 3074 3073 3072 3071 3070 3070 3069 3069 3070 3070 3070 3070 3071 3072 3073 3074 3074 3074 3074 3074 3074 3075 3075 3075 3075 3075 3074 3074 3074 3074 3075 3076 3076 3077 3078 3079 3080 3081 3081 3081 3080 3079 3078 3076 3074 3076 3080 3081 3080 3080 3081 3081 3080 3080 3080 3082 3083 3083 3085 3087 3088 3087 3086 3085 3084 3084 3083 3081 3082
3085 3084 3083 3083 3082 3081 3080 3080 3079 3078 3077 3077 3076 3075 3074 3072 3071 3070 3069 3068 3067 3066 3065 3065 3065 3066 3066 3066 3066 3067 3068 3069 3069 3069 3069 3069 3069 3069 3069 3069 3069 3069 3068 3068 3068 3068 3068 3068 3069 3069 3070 3070 3071 3071 3071 3071 3071 3069 3068 3067 3066 3069 3071 3071 3070 3071 3071 3071 3072 3072 3072 3072 3073 3074 3075 3077 3078 3079 3079 3079 3078 3078 3077 3075 3074
3083 3083 3082 3081 3081 3080 3079 3078 3077 3076 3076 3075 3074 3072 3071 3070 3069 3067 3066 3065 3064 3063 3062 3062 3061 3061 3061 3061 3062 3062 3063 3064 3065 3065 3065 3065 3065 3065 3065 3065 3064 3063 3063 3063 3063 3062 3062 3062 3062 3062 3062 3061 3061 3061 3061 3061 3060 3059 3058 3058 3058 3059 3060 3060 3061 3061 3061 3061 3062 3063 3064 3064 3064 3065 3066 3068 3070 3071 3071 3071 3071 3071 3070 3069 3069
3082 3081 3080 3080 3079 3078 3078 3077 3076 3075 3074 3072 3071 3070 3069 3067 3066 3065 3064 3062 3061 3061 3060 3059 3059 3058 3057 3057 3057 3058 3059 3060 3061 3061 3061 3061 3062 3061 3061 3061 3060 3059 3058 3057 3057 3057 3056 3055 3055 3054 3054 3053 3053 3052 3051 3051 3050 3049 3048 3048 3049 3049 3049 3049 3050 3050 3051 3052 3052 3053 3055 3056 3056 3057 3058 3059 3062 3063 3063 3062 3063 3063 3063 3062 3063
3080 3080 3079 3079 3078 3077 3076 3075 3074 3073 3072 3070 3069 3068 3067 3065 3064 3063 3061 3060 3059 3058 3058 3057 3057 3056 3055 3055 3055 3055 3056 3057 3058 3058 3058 3058 3058 3058 3057 3057 3056 3054 3053 3052 3051 3051 3050 3049 3048 3047 3046 3045 3044 3043 3042 3041 3041 3040 3039 3039 3039 3039 3039 3039 3039 3040 3040 3041 3041 3042 3044 3046 3047 3048 3049 3051 3053 3054 3054 3053 3053 3054 3056 3055 3056
3080 3079 3079 3078 3077 3076 3075 3074 3073 3071 3070 3069 3067 3066 3065 3064 3063 3061 3060 3059 3057 3056 3056 3055 3055 3054 3054 3053 3053 3053 3054 3054 3054 3054 3054 3054 3054 3054 3053 3052 3051 3050 3048 3047 3046 3045 3044 3043 3041 3040 3038 3036 3035 3034 3032 3032 3031 3031 3030 3030 3029 3028 3028 3028 3029 3029 3029 3030 3030 3031 3033 3035 3037 3038 3040 3041 3043 3044 3045 3045 3044 3046 3047 3048 3049
3079 3079 3078 3077 3077 3075 3074 3073 3072 3070 3069 3067 3066 3065 3064 3063 3062 3060 3059 3058 3057 3055 3054 3053 3053 3053 3052 3052 3052 3052 3051 3051 3051 3051 3051 3050 3050 3050 3049 3048 3047 3045 3044 3043 3041 3040 3039 3037 3035 3033 3031 3029 3027 3024 3022 3021 3021 3020 3020 3019 3018 3018 3018 3018 3018 3018 3019 3020 3021 3021 3022 3024 3026 3027 3029 3030 3030 3033 3036 3038 3037 3037 3038 3039 3040
3078 3078 3077 3076 3076 3075 3074 3072 3071 3070 3068 3067 3066 3064 3063 3062 3060 3059 3058 3057 3056 3055 3054 3052 3052 3051 3050 3050 3050 3049 3049 3048 3048 3048 3047 3047 3046 3046 3045 3044 3043 3041 3039 3038 3036 3035 3033 3031 3030 3027 3025 3023 3020 3017 3014 3012 3011 3010 3009 3009 3008 3008 3008 3008 3008 3008 3009 3010 3011 3011 3012 3014 3015 3016 3017 3018 3019 3022 3026 3028 3029 3030 3031 3031 3031
3077 3076 3076 3075 3074 3073 3072 3071 3070 3069 3067 3066 3065 3064 3062 3061 3060 3058 3057 3056 3055 3054 3053 3052 3051 3050 3049 3048 3048 3047 3046 3045 3044 3044 3043 3042 3042 3041 3040 3039 3038 3037 3035 3033 3032 3030 3028 3026 3024 3022 3019 3016 3013 3010 3007 3005 3003 3001 3000 3000 3000 3000 3000 2999 2999 2999 3000 3001 3001 3002 3003 3004 3004 3005 3006 3007 3008 3011 3014 3016 3018 3021 3023 3024 3021
3074 3074 3073 3073 3072 3071 3070 3069 3068 3067 3066 3064 3063 3062 3061 3060 3058 3057 3056 3054 3053 3052 3051 3050 3049 3048 3047 3046 3045 3044 3043 3042 3041 3040 3039 3038 3037 3036 3035 3034 3033 3032 3030 3028 3026 3025 3023 3021 3019 3016 3013 3009 3006 3003 3000 2998 2996 2994 2993 2994 2994 2994 2993 2992 2992 2992 2992 2993 2993 2994 2994 2994 2994 2995 2996 2996 2997 3000 3002 3004 3006 3009 3012 3013 3013
3072 3072 3071 3070 3070 3069 3068 3067 3066 3065 3064 3063 3062 3060 3059 3058 3057 3056 3054 3053 3051 3050 3049 3048 3047 3046 3045 3044 3042 3041 3040 3039 3038 3036 3035 3033 3032 3031 3030 3029 3027 3026 3025 3023 3021 3019 3017 3015 3013 3010 3007 3003 2999 2997 2994 2992 2990 2988 2987 2987 2987 2987 2987 2987 2986 2986 2986 2986 2986 2986 2986 2985 2985 2986 2986 2986 2987 2989 2991 2993 2995 2998 2999 3001 3002
3070 3069 3069 3068 3067 3066 3066 3065 3064 3063 3062 3061 3060 3059 3058 3057 3056 3055 3053 3052 3050 3049 3047 3046 3044 3043 3042 3041 3040 3039 3037 3036 3035 3033 3031 3030 3028 3027 3025 3024 3022 3021 3019 3017 3016 3014 3011 3009 3007 3004 3001 2998 2994 2991 2989 2987 2985 2984 2983 2983 2982 2982 2982 2981 2981 2981 2980 2979 2979 2979 2978 2978 2978 2978 2978 2978 2979 2981 2981 2982 2984 2986 2988 2990 2992
3067 3067 3066 3066 3065 3064 3063 3063 3062 3061 3060 3059 3058 3057 3056 3054 3053 3052 3051 3050 3049 3047 3046 3044 3043 3041 3040 3039 3038 3037 3035 3034 3032 3030 3029 3027 3025 3023 3021 3020 3018 3016 3014 3012 3010 3008 3007 3004 3002 2999 2996 2993 2989 2986 2984 2983 2981 2980 2979 2978 2977 2977 2976 2976 2975 2975 2974 2973 2973 2972 2971 2971 2971 2970 2970 2970 2971 2972 2973 2973 2974 2975 2978 2981 2982
3065 3065 3064 3063 3063 3062 3062 3061 3060 3059 3058 3057 3056 3055 3054 3052 3051 3050 3049 3048 3046 3045 3043 3042 3041 3039 3038 3037 3035 3034 3032 3031 3030 3028 3026 3024 3022 3020 3018 3016 3014 3012 3010 3007 3005 3003 3002 3000 2997 2995 2992 2989 2986 2983 2981 2979 2978 2976 2975 2973 2972 2971 2970 2970 2969 2968 2968 2967 2966 2965 2965 2964 2963 2963 2963 2963 2963 2963 2964 2965 2966 2966 2968 2970 2971
3063 3062 3062 3061 3061 3060 3060 3059 3058 3057 3056 3055 3054 3053 3052 3050 3049 3048 3047 3046 3044 3043 3041 3040 3038 3037 3035 3034 3032 3031 3029 3028 3026 3025 3023 3021 3020 3017 3015 3013 3011 3008 3005 3003 3000 2999 2997 2995 2993 2991 2989 2986 2983 2980 2978 2976 2974 2973 2971 2970 2968 2966 2965 2963 2962 2961 2961 2960 2959 2958 2958 2958 2956 2956 2956 2956 2956 2955 2955 2956 2957 2958 2958 2960 2961
3061 3060 3060 3059 3058 3058 3057 3057 3056 3055 3054 3053 3052 3051 3050 3048 3047 3046 3045 3043 3042 3041 3039 3038 3036 3034 3033 3031 3029 3028 3026 3025 3023 3022 3020 3018 3016 3014 3012 3010 3008 3005 3002 2999 2997 2994 2993 2991 2989 2987 2985 2983 2981 2978 2976 2974 2972 2969 2967 2966 2963 2961 2959 2957 2955 2954 2954 2953 2952 2951 2951 2951 2950 2950 2950 2950 2949 2948 2948 2948 2949 2949 2950 2952 2953
3059 3058 3058 3057 3056 3056 3055 3054 3054 3053 3052 3051 3050 3048 3047 3046 3045 3043 3042 3041 3039 3038 3037 3035 3034 3032 3030 3029 3027 3025 3023 3022 3020 3018 3017 3015 3013 3011 3009 3006 3004 3002 2999 2997 2994 2991 2989 2987 2986 2984 2982 2980 2978 2976 2973 2971 2969 2967 2964 2961 2958 2955 2953 2950 2948 2946 2946 2945 2945 2944 2944 2944 2943 2944 2944 2943 2942 2941 2942 2942 2942 2942 2943 2944 2945
3057 3056 3056 3055 3055 3054 3053 3052 3051 3051 3050 3049 3048 3046 3045 3044 3043 3041 3040 3038 3037 3035 3034 3033 3032 3030 3028 3027 3025 3023 3021 3019 3017 3015 3013 3012 3010 3008 3005 3003 3001 2998 2996 2994 2991 2989 2987 2984 2982 2980 2978 2977 2975 2973 2970 2968 2965 2963 2960 2957 2954 2950 2947 2943 2940 2939 2938 2937 2937 2937 2937 2936 2937 2937 2936 2935 2934 2934 2934 2934 2934 2934 2935 2935 2936
3055 3055 3054 3054 3053 3052 3052 3051 3050 3049 3048 3047 3046 3045 3043 3042 3041 3039 3038 3036 3035 3033 3031 3030 3029 3027 3026 3024 3023 3021 3019 3017 3015 3013 3010 3008 3006 3004 3002 3000 2998 2995 2993 2991 2988 2986 2984 2981 2979 2977 2975 2973 2971 2969 2967 2964 2961 2959 2957 2954 2951 2946 2942 2938 2935 2932 2931 2930 2930 2930 2930 2929 2929 2929 2929 2927 2926 2926 2925 2925 2926 2926 2927 2927 2927
3054 3053 3053 3052 3051 3051 3050 3049 3048 3048 3047 3046 3044 3043 3042 3041 3039 3038 3036 3035 3033 3031 3030 3028 3026 3024 3023 3021 3020 3018 3016 3014 3012 3010 3008 3005 3003 3001 2999 2997 2994 2992 2990 2988 2985 2983 2981 2978 2976 2973 2971 2969 2967 2964 2962 2960 2958 2955 2952 2950 2947 2944 2940 2935 2931 2928 2926 2925 2925 2925 2924 2923 2923 2922 2921 2920 2919 2918 2918 2919 2918 2918 2918 2919 2919
3052 3052 3051 3051 3050 3049 3048 3048 3047 3046 3045 3044 3043 3042 3040 3039 3038 3036 3035 3033 3031 3030 3028 3026 3024 3022 3020 3019 3017 3015 3013 3011 3009 3006 3004 3002 3000 2998 2996 2993 2991 2989 2987 2984 2982 2980 2978 2976 2973 2970 2968 2965 2962 2960 2958 2955 2953 2951 2948 2946 2943 2940 2937 2933 2929 2926 2924 2922 2920 2919 2918 2917 2916 2915 2914 2913 2912 2912 2912 2911 2911 2910 2910 2910 2910
3051 3051 3050 3049 3049 3048 3047 3046 3045 3044 3043 3042 3041 3040 3038 3037 3036 3034 3033 3031 3029 3027 3026 3024 3022 3020 3018 3016 3014 3012 3010 3008 3006 3004 3001 2999 2997 2995 2993 2990 2988 2986 2983 2981 2979 2976 2974 2972 2970 2968 2965 2962 2959 2956 2954 2951 2949 2947 2944 2942 2939 2937 2934 2931 2928 2925 2922 2919 2916 2914 2913 2911 2910 2909 2907 2906 2906 2906 2905 2904 2904 2903 2903 2902 2902
3049 3049 3048 3048 3047 3046 3045 3044 3043 3042 3041 3040 3039 3037 3036 3035 3033 3032 3030 3028 3027 3025 3023 3021 3019 3017 3015 3013 3012 3009 3007 3005 3003 3001 2999 2996 2994 2992 2990 2987 2985 2983 2980 2978 2975 2973 2971 2968 2966 2964 2962 2959 2956 2953 2951 2948 2945 2943 2941 2938 2935 2933 2931 2928 2926 2923 2920 2917 2914 2911 2908 2906 2904 2902 2901 2900 2900 2899 2899 2898 2897 2897 2896 2895 2895
3048 3047 3046 3046 3045 3044 3043 3042 3041 3040 3038 3037 3036 3034 3033 3031 3030 3028 3027 3025 3024 3022 3020 3018 3016 3014 3012 3010 3008 3006 3004 3002 3000 2998 2996 2994 2991 2989 2986 2984 2982 2980 2977 2975 2972 2970 2967 2965 2962 2960 2958 2956 2954 2951 2948 2946 2943 2940 2938 2935 2933 2930 2927 2925 2923 2921 2918 2915 2912 2909 2906 2903 2900 2897 2896 2895 2894 2893 2892 2892 2891 2890 2889 2888 2888
3046 3045 3045 3044 3043 3042 3041 3040 3038 3037 3036 3034 3033 3031 3029 3028 3026 3025 3023 3021 3019 3018 3016 3015 3013 3011 3009 3007 3004 3002 3000 2998 2996 2994 2993 2991 2988 2986 2984 2981 2979 2976 2974 2971 2969 2966 2964 2962 2959 2957 2955 2953 2950 2948 2945 2943 2940 2938 2936 2933 2931 2928 2925 2922 2920 2917 2915 2913 2910 2907 2904 2900 2897 2894 2892 2890 2888 2887 2886 2886 2885 2884 2884 2882 2882
3044 3043 3043 3042 3041 3040 3039 3037 3036 3034 3032 3031 3029 3028 3026 3024 3022 3021 3019 3017 3015 3013 3011 3010 3008 3007 3005 3003 3001 2999 2997 2995 2993 2991 2989 2987 2985 2983 2980 2978 2976 2973 2971 2968 2966 2963 2961 2958 2956 2954 2951 2949 2947 2945 2942 2940 2937 2935 2933 2931 2929 2926 2923 2920 2917 2915 2912 2910 2907 2905 2902 2899 2895 2892 2888 2886 2884 2882 2881 2881 2880 2880 2879 2877 2876
3042 3041 3040 3040 3038 3037 3036 3035 3033 3031 3030 3028 3026 3024 3022 3020 3018 3016 3014 3013 3011 3009 3007 3005 3003 3001 3000 2998 2996 2994 2993 2991 2989 2987 2985 2983 2981 2979 2977 2974 2972 2970 2967 2965 2962 2960 2957 2955 2952 2950 2948 2946 2943 2941 2939 2937 2934 2932 2930 2928 2926 2924 2921 2918 2916 2913 2911 2908 2905 2902 2900 2897 2893 2890 2886 2884 2882 2880 2878 2877 2876 2876 2875 2874 2872
3040 3039 3038 3037 3036 3034 3033 3032 3030 3029 3027 3025 3023 3021 3020 3018 3016 3013 3011 3008 3007 3005 3003 3001 2999 2997 2995 2993 2991 2989 2987 2986 2984 2983 2981 2979 2977 2975 2973 2970 2968 2966 2963 2961 2959 2957 2954 2952 2949 2947 2945 2942 2940 2938 2936 2934 2931 2929 2926 2924 2922 2920 2918 2916 2914 2912 2910 2907 2904 2901 2898 2895 2892 2889 2886 2884 2883 2880 2878 2876 2874 2873 2872 2870 2869
3036 3035 3034 3033 3032 3031 3030 3028 3026 3025 3023 3021 3020 3018 3016 3014 3012 3010 3008 3005 3002 3000 2998 2996 2994 2992 2990 2988 2986 2984 2981 2980 2978 2977 2976 2975 2973 2970 2968 2966 2964 2962 2959 2957 2955 2953 2950 2948 2946 2944 2941 2939 2937 2935 2932 2930 2928 2926 2924 2922 2919 2917 2915 2914 2912 2910 2908 2905 2903 2900 2897 2894 2891 2889 2886 2884 2882 2880 2878 2876 2874 2872 2870 2868 2867
3033 3032 3031 3030 3028 3027 3026 3024 3022 3020 3019 3017 3015 3013 3011 3009 3007 3005 3003 3001 2999 2996 2994 2992 2990 2987 2985 2982 2980 2978 2976 2974 2972 2971 2970 2969 2967 2966 2963 2961 2959 2957 2955 2953 2950 2948 2946 2944 2942 2940 2938 2936 2933 2931 2929 2927 2925 2923 2921 2919 2917 2915 2913 2911 2909 2908 2906 2904 2901 2898 2896 2893 2890 2888 2886 2884 2882 2880 2878 2876 2874 2872 2870 2869 2867
3030 3029 3027 3026 3025 3023 3021 3020 3018 3016 3014 3012 3010 3008 3006 3004 3002 3000 2998 2996 2994 2992 2989 2987 2985 2983 2980 2978 2976 2973 2972 2970 2968 2966 2964 2963 2962 2960 2958 2956 2954 2952 2950 2948 2946 2944 2942 2940 2938 2936 2934 2932 2930 2927 2925 2923 2921 2920 2918 2916 2914 2912 2910 2908 2907 2905 2903 2901 2899 2897 2895 2892 2890 2888 2885 2884 2882 2879 2877 2876 2874 2873 2871 2870 2868
3026 3025 3023 3022 3020 3019 3017 3015 3013 3012 3010 3008 3005 3003 3001 2999 2997 2995 2993 2991 2989 2986 2984 2982 2980 2977 2975 2972 2970 2968 2966 2965 2963 2961 2959 2957 2955 2954 2953 2951 2949 2947 2946 2944 2941 2939 2937 2935 2933 2931 2929 2927 2926 2924 2922 2919 2917 2916 2914 2912 2911 2909 2907 2905 2904 2902 2900 2899 2897 2895 2893 2891 2889 2887 2885 2883 2881 2879 2877 2875 2874 2872 2871 2870 2870